Temperature
4 5 5 5 5 5 6 7 7 8 8 8 7 6 6 5 4 4 3 3 3 3 4 4 5 5 6 6 7 7 7 7 7 7 6 6 6 6 6 6 6 6 6 6
3 4 4 4 4 5 5 6 6 7 7 6 6 5 4 4 3 3 3 3 3 3 3 4 4 5 5 6 6 6 6 6 6 6 6 6 6 5 5 5 5 5 5 5
4 4 4 4 4 4 4 5 5 6 6 5 5 4 4 3 3 3 2 2 2 3 3 3 4 4 5 5 5 5 5 5 5 5 5 5 5 5 5 5 5 5 5 4
3 3 3 4 4 4 4 4 4 5 4 4 4 3 3 2 2 2 2 2 2 2 3 3 3 4 4 4 4 5 5 5 5 5 5 5 5 4 4 4 4 4 4 4
3 3 4 4 3 2 3 3 3 3 3 3 2 3 2 1 1 1 1 1 2 2 3 3 3 3 4 4 4 4 4 4 4 4 4 4 4 4 4 4 3 3 3 3
2 3 3 4 3 2 3 3 3 2 2 2 2 3 3 1 1 1 1 1 2 2 3 3 3 3 3 3 3 3 3 3 3 3 3 3 3 3 3 3 3 3 3 2
2 2 3 2 1 2 3 3 2 1 1 1 2 2 1 0 0 0 1 1 1 2 2 2 2 2 2 2 2 2 2 2 2 2 2 2 2 2 2 2 2 2 2 2
1 2 2 1 1 2 2 1 0 0 0 0 -0 -0 -0 -0 -0 -0 0 1 1 1 1 1 1 1 1 2 1 1 2 2 2 2 2 2 1 1 1 1 1 1 1 1
1 2 1 -0 -0 -0 -1 -0 -0 -0 -1 -1 -1 -1 -1 -1 -1 -1 -0 -0 0 0 0 1 1 1 1 1 1 1 1 1 1 1 1 1 1 1 1 0 0 0 -0 -0
0 1 -0 -1 -1 -1 -1 -1 -1 -1 -1 -1 -1 -2 -2 -2 -2 -1 -1 -1 -1 -0 -0 -0 0 0 0 0 0 0 0 -0 -0 -0 -0 -0 -0 -0 -0 -0 -0 -1 -1 -1
-0 -0 -1 -1 -2 -2 -2 -2 -2 -2 -2 -2 -2 -2 -2 -2 -2 -2 -2 -2 -2 -1 -1 -1 -1 -1 -1 -1 -1 -1 -1 -1 -1 -1 -1 -1 -1 -1 -1 -1 -1 -1 -1 -1
0 -1 -1 -1 -2 -2 -2 -2 -2 -2 -2 -2 -2 -2 -2 -3 -2 -2 -2 -2 -2 -2 -2 -2 -2 -2 -1 -1 -1 -1 -1 -1 -1 -1 -2 -2 -2 -2 -2 -2 -2 -2 -2 -2
-2 -3 -3 -3 -3 -3 -3 -3 -3 -3 -3 -3 -3 -3 -3 -3 -3 -3 -3 -3 -3 -3 -3 -3 -2 -2 -2 -2 -2 -2 -2 -2 -2 -2 -2 -2 -2 -2 -2 -2 -2 -2 -2 -2
-3 -3 -3 -3 -3 -3 -3 -3 -3 -3 -3 -3 -3 -3 -3 -3 -3 -3 -3 -3 -3 -3 -3 -3 -3 -3 -3 -3 -3 -3 -3 -3 -3 -3 -3 -3 -3 -3 -3 -3 -3 -3 -3 -3
-4 -4 -4 -4 -4 -4 -4 -4 -4 -4 -4 -4 -4 -4 -4 -4 -4 -4 -4 -4 -4 -4 -4 -4 -4 -4 -4 -4 -4 -4 -4 -4 -4 -4 -4 -4 -4 -4 -4 -4 -4 -4 -4 -4
-4 -4 -4 -5 -4 -4 -4 -4 -4 -4 -4 -4 -4 -4 -4 -4 -4 -4 -4 -4 -4 -4 -4 -4 -4 -4 -4 -4 -4 -4 -4 -4 -4 -4 -4 -4 -4 -4 -4 -5 -4 -4 -4 -4
-5 -5 -5 -5 -5 -5 -5 -5 -5 -5 -5 -4 -5 -5 -5 -5 -5 -5 -5 -5 -5 -5 -5 -5 -5 -5 -5 -5 -5 -5 -5 -5 -5 -5 -5 -5 -5 -5 -5 -5 -5 -5 -5 -5
-5 -5 -5 -5 -5 -5 -5 -5 -5 -5 -5 -5 -5 -5 -5 -5 -5 -5 -5 -5 -5 -5 -5 -5 -5 -5 -5 -5 -5 -5 -5 -5 -5 -5 -5 -5 -5 -5 -6 -6 -6 -6 -5 -5
-5 -5 -5 -5 -5 -5 -5 -5 -5 -5 -5 -5 -5 -5 -5 -5 -6 -6 -6 -6 -5 -5 -6 -6 -6 -6 -6 -6 -6 -6 -6 -6 -6 -6 -6 -6 -6 -6 -6 -6 -6 -6 -6 -6
-5 -5 -6 -5 -5 -5 -5 -6 -6 -6 -6 -6 -6 -6 -6 -6 -6 -6 -6 -6 -6 -6 -6 -6 -6 -6 -6 -6 -6 -6 -6 -6 -6 -6 -6 -6 -6 -6 -6 -6 -6 -6 -6 -6
-6 -6 -6 -6 -6 -6 -6 -6 -6 -6 -6 -6 -6 -6 -6 -6 -6 -6 -7 -7 -7 -7 -7 -7 -7 -7 -7 -7 -7 -7 -7 -7 -7 -7 -7 -7 -7 -7 -7 -7 -7 -7 -7 -7
-6 -6 -6 -6 -6 -6 -6 -6 -6 -6 -6 -7 -7 -7 -7 -7 -7 -7 -7 -7 -7 -7 -7 -7 -7 -7 -7 -7 -7 -7 -7 -7 -7 -7 -7 -7 -7 -7 -7 -7 -7 -7 -7 -7
-6 -6 -7 -7 -7 -7 -7 -7 -7 -7 -7 -7 -7 -7 -7 -7 -7 -7 -8 -8 -8 -8 -8 -8 -8 -8 -8 -8 -8 -8 -8 -8 -8 -8 -8 -8 -8 -8 -7 -7 -7 -7 -7 -7
-7 -7 -7 -7 -7 -7 -7 -7 -7 -7 -7 -8 -8 -8 -8 -8 -8 -8 -8 -8 -8 -8 -8 -8 -8 -8 -8 -8 -8 -8 -8 -8 -8 -8 -8 -8 -8 -8 -8 -8 -8 -8 -7 -7
-7 -7 -7 -7 -7 -8 -8 -8 -8 -8 -8 -8 -8 -8 -8 -8 -8 -8 -8 -8 -9 -9 -8 -9 -8 -8 -8 -8 -8 -8 -8 -8 -8 -8 -8 -8 -8 -8 -8 -8 -8 -8 -8 -8
-7 -7 -8 -8 -8 -8 -8 -8 -8 -8 -8 -8 -8 -9 -9 -9 -9 -9 -9 -9 -9 -9 -9 -9 -9 -9 -9 -9 -9 -9 -9 -9 -9 -9 -8 -8 -8 -8 -8 -8 -8 -8 -8 -8
-8 -8 -8 -8 -8 -8 -8 -8 -8 -8 -9 -9 -9 -9 -9 -9 -9 -9 -9 -9 -9 -9 -9 -9 -9 -9 -9 -9 -9 -9 -9 -9 -9 -9 -9 -9 -9 -9 -9 -8 -8 -8 -8 -8
Wind_Speed
3 4 2 3 5 5 6 7 7 7 7 5 5 4 3 3 2 2 3 3 3 3 4 4 4 4 4 4 4 4 4 4 3 3 3 3 3 2 2 2 2 3 3 3
3 3 2 2 5 6 7 7 8 8 8 6 4 2 2 2 2 1 2 2 2 3 3 3 3 3 4 3 3 4 4 3 3 3 2 2 2 2 2 2 2 2 2 3
3 3 2 3 5 6 6 6 7 8 8 5 4 2 2 1 1 0 1 1 2 3 3 3 3 3 3 3 3 3 3 3 3 3 2 2 2 2 2 2 2 2 2 2
2 1 4 1 2 4 5 4 4 5 5 4 4 3 2 2 1 1 1 1 2 2 3 3 3 3 4 3 3 3 3 3 2 2 2 2 1 2 2 1 2 2 2 3
2 3 4 3 3 4 4 4 4 4 4 4 2 1 2 4 2 1 1 1 2 2 3 3 3 4 4 4 4 3 3 2 2 1 2 1 1 1 1 1 1 1 2 2
2 3 3 3 4 5 4 3 4 3 4 4 2 2 3 3 2 2 2 2 3 3 3 3 3 3 4 3 3 3 2 2 1 1 1 1 1 1 1 1 1 1 1 2
3 3 3 4 6 2 3 3 5 3 3 2 2 3 2 2 2 3 3 3 3 3 3 3 2 3 3 3 2 2 2 1 1 1 0 0 1 1 1 1 1 1 1 2
3 3 4 3 1 1 3 4 4 4 3 2 2 2 2 2 2 3 3 3 3 3 4 3 2 2 2 2 2 1 1 1 1 1 1 0 0 1 1 1 1 1 1 2
3 3 3 2 2 4 5 4 4 4 3 2 1 2 2 2 2 2 3 3 3 3 3 3 3 2 2 1 1 1 1 1 1 1 1 0 0 1 1 1 1 1 1 1
4 4 4 4 4 5 4 4 4 4 3 2 1 1 2 2 2 2 2 2 2 2 3 3 3 2 2 1 1 0 1 1 1 1 1 1 0 0 1 1 1 1 1 2
5 6 6 5 5 5 4 3 3 3 3 2 1 1 1 1 2 2 2 2 1 2 2 2 3 2 2 1 0 0 1 1 1 1 0 1 1 1 1 1 2 2 2 2
6 5 5 6 5 4 4 4 3 3 3 3 1 1 1 1 2 2 1 2 2 2 2 2 2 2 2 1 1 0 0 1 1 1 0 0 0 1 2 1 2 2 3 3
7 6 6 6 5 4 4 4 3 3 2 2 2 1 1 1 1 1 1 2 1 1 1 2 2 2 2 2 1 1 1 1 1 1 1 1 1 1 1 2 2 2 2 2
5 5 5 5 5 4 3 3 2 2 2 2 1 1 0 0 1 1 1 1 1 1 1 2 2 2 3 2 1 1 1 1 1 1 1 1 1 1 1 1 2 2 2 2
5 4 4 4 3 3 2 1 1 2 2 2 1 1 1 1 1 1 1 1 1 2 2 2 2 2 3 2 1 1 1 1 1 1 1 1 1 1 1 2 2 2 2 2
4 3 3 3 3 3 2 1 1 2 1 1 1 1 1 1 1 1 1 1 1 1 2 2 2 3 3 2 2 1 1 1 1 1 1 1 1 1 1 2 2 2 2 3
3 3 4 4 4 3 3 2 2 2 1 0 0 0 1 1 1 1 2 2 1 1 2 2 2 3 2 2 2 2 1 1 1 1 1 1 1 2 2 2 2 2 3 3
3 4 4 4 4 3 2 2 1 1 1 1 1 1 1 1 1 1 1 1 2 2 2 2 2 3 2 2 2 2 1 1 1 1 1 1 2 2 2 2 2 3 3 3
1 1 1 1 1 1 1 1 1 1 1 1 2 1 1 1 1 1 1 1 1 2 2 2 3 3 3 3 2 1 1 1 1 1 1 2 2 2 2 2 2 3 3 3
0 0 1 1 1 1 1 1 1 1 1 2 2 2 2 1 1 1 1 1 1 2 2 2 2 2 3 2 3 1 1 2 2 1 1 1 2 2 2 2 3 3 3 3
0 0 1 1 1 1 1 1 1 1 1 2 2 2 1 1 1 1 1 1 2 2 2 2 2 2 2 2 3 2 2 2 2 2 1 2 2 2 2 2 3 3 3 3
1 1 0 1 1 1 1 1 1 1 2 2 2 2 1 1 1 1 1 1 1 2 2 2 2 2 3 3 2 2 2 2 2 2 2 2 2 2 2 3 3 3 3 3
1 1 1 1 1 1 1 1 1 1 1 1 1 1 1 0 0 0 1 1 1 2 3 2 2 4 4 3 2 2 2 2 2 2 2 2 2 2 2 3 3 3 3 4
1 1 1 1 1 1 1 1 1 1 1 1 1 1 1 0 0 0 0 1 2 3 2 2 4 4 4 3 2 2 2 2 2 2 2 2 2 2 2 3 3 3 4 4
2 1 1 2 1 1 0 1 1 1 1 1 1 1 0 0 0 0 1 1 2 3 2 3 4 5 3 2 2 2 2 2 2 2 2 2 2 3 3 3 3 3 4 4
2 2 1 1 1 1 1 1 1 1 1 1 1 1 1 1 1 0 0 1 1 2 2 2 2 3 2 2 2 2 2 2 3 2 2 2 3 3 3 3 4 4 4 4
1 1 1 1 0 1 1 1 1 1 1 1 0 1 1 1 1 1 1 1 1 1 2 2 2 2 2 2 2 2 2 2 2 2 3 3 3 3 3 4 4 4 4 5
Wind_Direction
275 289 236 261 263 243 231 237 236 243 254 279 301 317 343 4 30 64 80 95 111 115 116 119 119 117 113 119 129 134 137 140 147 153 158 164 172 182 186 191 198 199 200 202
264 277 252 287 296 261 251 249 248 255 258 295 311 347 8 9 29 59 77 88 102 115 118 120 119 117 113 110 114 126 128 128 132 139 144 153 163 173 173 176 185 192 200 205
259 303 261 273 278 257 243 247 247 252 266 293 310 319 329 350 41 84 89 91 95 110 117 111 109 111 111 109 111 116 120 122 125 127 125 133 152 166 174 182 191 204 212 217
258 258 231 248 334 278 251 265 276 274 288 293 290 301 331 1 11 35 77 90 85 85 93 95 96 97 101 102 103 107 110 109 107 117 120 124 149 173 187 196 207 220 224 229
215 227 255 281 314 297 257 264 312 295 304 319 320 324 354 3 1 5 77 86 83 78 86 91 91 96 101 96 95 94 88 82 82 108 128 136 157 186 192 194 220 238 242 242
212 219 239 305 328 313 243 258 332 315 300 310 319 269 295 348 12 36 50 64 69 71 78 81 80 92 99 93 85 78 70 59 55 70 133 173 203 217 210 203 223 247 256 253
229 231 258 319 319 271 213 294 332 326 303 300 295 286 315 9 36 46 56 57 60 67 66 62 72 91 92 82 65 44 46 51 47 49 72 230 236 230 215 203 213 236 261 276
229 232 259 348 8 205 294 321 323 322 317 321 335 0 17 30 45 53 55 48 50 56 51 45 57 87 88 66 39 41 54 53 36 27 25 258 225 228 211 196 210 234 273 303
234 248 314 315 293 312 312 307 316 314 313 319 343 354 4 12 22 32 45 42 45 60 56 39 34 55 75 41 30 53 70 55 39 29 18 346 223 223 214 201 216 241 263 285
253 263 285 294 303 313 312 308 317 318 317 321 335 344 347 1 13 15 22 30 43 59 55 35 27 40 56 38 23 49 71 54 41 37 25 13 356 268 221 219 229 246 261 277
260 277 285 282 302 311 316 323 333 336 334 333 354 350 334 337 355 359 8 23 44 59 54 30 19 26 33 28 27 50 43 28 13 16 17 11 359 325 280 270 248 249 259 264
264 274 274 285 300 308 311 315 319 328 335 334 323 323 330 330 342 3 20 33 39 43 45 27 19 16 17 19 12 8 348 335 328 336 341 338 348 4 26 327 317 300 288 282
268 284 282 284 291 303 302 307 315 322 317 323 327 325 322 326 354 40 53 43 33 21 22 21 19 16 12 11 6 353 311 305 311 304 289 276 286 295 331 3 1 323 302 309
268 275 269 276 285 298 301 310 331 347 341 336 326 339 11 26 47 55 38 19 26 34 25 16 17 9 359 1 360 344 318 320 309 301 298 280 266 271 276 282 303 321 329 321
281 269 264 275 287 298 301 314 354 343 344 347 356 22 61 80 57 32 23 28 42 46 29 17 5 352 350 353 351 338 329 327 322 313 307 300 294 288 282 280 286 303 315 322
284 277 261 254 262 273 282 285 284 294 311 335 3 19 31 62 62 42 39 40 44 22 3 356 347 342 345 346 340 325 319 332 313 298 300 302 291 277 278 281 288 293 301 310
256 262 260 261 262 269 271 265 249 255 265 283 352 35 86 95 83 58 34 20 15 356 344 336 333 338 341 335 326 319 316 312 327 308 292 288 282 276 277 277 279 291 299 304
253 259 254 253 252 248 252 251 234 226 230 188 133 125 128 127 114 26 16 20 27 20 3 351 341 335 339 341 329 319 312 304 308 306 300 294 296 290 283 283 285 289 299 306
251 251 263 278 266 230 224 228 209 163 140 142 138 132 125 115 96 50 39 41 29 4 356 358 350 346 341 344 343 325 317 311 311 312 307 305 310 300 290 286 290 296 301 304
238 12 59 61 78 124 161 164 136 120 119 125 122 112 101 87 77 65 61 28 354 338 335 340 342 346 342 338 341 330 327 322 317 316 319 309 306 303 301 300 301 304 304 300
233 123 102 87 73 63 90 137 138 128 111 120 131 132 123 93 64 58 65 24 8 5 351 349 353 347 341 338 338 340 342 334 327 319 311 305 304 304 304 305 304 301 300 301
214 186 167 109 91 55 36 77 116 119 111 109 114 120 115 94 62 41 23 346 350 359 356 354 360 358 355 350 0 6 357 346 335 327 318 310 305 303 304 305 303 303 303 305
204 192 174 153 134 78 60 69 96 118 128 133 141 145 144 133 87 76 14 20 12 1 356 359 5 2 4 15 20 9 357 347 336 328 323 320 313 305 301 304 307 307 306 309
186 177 173 131 112 102 77 41 74 97 113 115 121 133 132 102 34 16 356 344 358 356 2 11 10 8 14 20 13 1 349 339 334 331 328 324 321 318 314 311 310 310 309 310
176 163 149 146 152 180 196 133 113 108 109 102 87 82 91 87 200 38 26 15 12 9 9 10 12 12 14 10 2 352 344 339 332 328 327 328 326 322 319 314 311 308 307 308
179 186 190 198 205 208 190 164 145 131 127 116 72 56 65 67 71 53 40 20 6 3 358 354 358 4 2 354 350 345 339 334 334 336 330 325 322 319 315 313 311 308 306 305
163 168 159 165 186 191 177 168 165 162 162 159 130 89 90 78 73 54 30 7 356 355 351 347 347 348 346 344 341 334 327 323 321 321 320 317 315 312 313 310 308 306 304 302
Height
1464 1462 1462 1462 1460 1458 1456 1453 1452 1450 1450 1450 1452 1453 1454 1453 1453 1453 1453 1453 1454 1454 1456 1457 1459 1460 1462 1464 1466 1468 1470 1472 1474 1476 1477 1479 1480 1481 1481 1482 1483 1483 1484 1484
1464 1462 1461 1461 1460 1458 1457 1456 1454 1452 1452 1454 1455 1455 1455 1454 1454 1453 1453 1453 1454 1455 1456 1457 1458 1459 1461 1463 1465 1467 1469 1470 1472 1473 1475 1476 1477 1478 1478 1479 1479 1480 1480 1480
1461 1462 1460 1460 1461 1459 1458 1457 1455 1452 1454 1455 1455 1455 1455 1455 1454 1454 1454 1454 1454 1455 1456 1457 1458 1459 1461 1462 1464 1466 1467 1469 1470 1471 1472 1473 1474 1475 1475 1475 1476 1476 1477 1477
1463 1464 1464 1460 1461 1460 1458 1457 1457 1456 1455 1455 1455 1455 1455 1455 1455 1454 1454 1454 1454 1455 1456 1457 1458 1459 1460 1462 1463 1464 1466 1467 1468 1469 1469 1470 1471 1472 1472 1472 1473 1473 1473 1473
1464 1461 1457 1458 1461 1462 1460 1457 1458 1457 1456 1456 1455 1454 1455 1455 1455 1455 1454 1454 1454 1455 1456 1457 1458 1459 1460 1461 1462 1463 1464 1465 1466 1467 1467 1468 1468 1469 1469 1469 1470 1470 1470 1470
1465 1460 1459 1458 1461 1461 1461 1456 1458 1458 1456 1456 1455 1453 1455 1456 1455 1455 1455 1455 1455 1455 1456 1457 1458 1459 1459 1460 1461 1462 1463 1464 1464 1465 1465 1465 1466 1466 1466 1466 1466 1466 1466 1466
1465 1462 1458 1462 1462 1460 1460 1458 1459 1457 1456 1456 1456 1456 1456 1455 1455 1455 1454 1455 1455 1455 1456 1457 1458 1458 1459 1459 1460 1461 1461 1462 1462 1463 1463 1463 1463 1463 1463 1463 1463 1463 1463 1463
1465 1463 1463 1463 1461 1461 1460 1459 1458 1457 1456 1456 1455 1455 1454 1454 1454 1454 1453 1454 1454 1455 1455 1456 1457 1458 1458 1458 1459 1459 1460 1460 1460 1460 1461 1461 1461 1461 1461 1461 1460 1460 1460 1460
1465 1464 1464 1463 1463 1462 1460 1459 1457 1456 1456 1455 1454 1454 1454 1453 1453 1453 1453 1453 1454 1454 1455 1455 1456 1457 1457 1457 1458 1458 1458 1458 1458 1458 1458 1458 1458 1458 1458 1458 1457 1457 1456 1456
1465 1463 1463 1463 1462 1460 1459 1458 1457 1456 1455 1454 1453 1453 1453 1453 1452 1452 1452 1453 1453 1453 1454 1454 1455 1455 1455 1456 1456 1456 1456 1456 1456 1456 1456 1456 1456 1456 1456 1455 1455 1454 1454 1453
1463 1463 1462 1460 1460 1459 1458 1457 1456 1455 1454 1453 1452 1452 1452 1452 1452 1452 1452 1452 1452 1452 1452 1453 1453 1453 1453 1454 1454 1454 1454 1454 1454 1454 1454 1454 1454 1454 1453 1453 1453 1452 1451 1451
1460 1461 1461 1459 1458 1457 1456 1455 1455 1453 1453 1452 1451 1451 1451 1451 1451 1450 1450 1451 1451 1451 1451 1451 1451 1451 1452 1452 1452 1452 1452 1452 1452 1452 1452 1451 1451 1451 1451 1451 1450 1450 1449 1449
1460 1459 1459 1457 1456 1456 1455 1454 1453 1452 1451 1450 1450 1450 1449 1449 1449 1449 1449 1449 1450 1450 1450 1450 1450 1450 1450 1450 1450 1450 1450 1450 1450 1449 1449 1449 1449 1448 1448 1448 1448 1447 1447 1446
1458 1457 1456 1455 1454 1453 1452 1452 1451 1450 1450 1449 1449 1448 1448 1448 1448 1448 1448 1448 1449 1449 1449 1448 1448 1448 1448 1448 1448 1448 1448 1447 1447 1447 1447 1447 1446 1446 1446 1445 1444 1444 1445 1444
1455 1454 1454 1452 1452 1451 1450 1450 1449 1448 1448 1448 1447 1447 1446 1446 1446 1446 1447 1447 1447 1447 1447 1447 1447 1447 1447 1446 1446 1446 1446 1445 1445 1445 1445 1445 1444 1444 1444 1443 1442 1442 1441 1441
1452 1451 1451 1450 1449 1448 1448 1447 1447 1446 1446 1446 1446 1445 1445 1445 1445 1445 1445 1446 1446 1445 1446 1446 1445 1445 1445 1445 1444 1444 1444 1444 1444 1443 1443 1442 1442 1442 1441 1441 1440 1439 1438 1438
1450 1449 1448 1447 1446 1446 1446 1445 1445 1445 1445 1445 1444 1444 1444 1444 1444 1444 1444 1445 1445 1444 1444 1444 1444 1444 1444 1443 1443 1442 1442 1442 1441 1441 1441 1440 1440 1439 1439 1438 1438 1437 1436 1436
1447 1447 1446 1445 1444 1443 1443 1443 1443 1443 1443 1443 1443 1443 1443 1443 1443 1443 1443 1443 1443 1443 1443 1443 1443 1443 1442 1442 1441 1441 1440 1440 1440 1439 1439 1438 1438 1437 1436 1436 1435 1434 1433 1433
1445 1444 1444 1443 1442 1442 1442 1442 1442 1442 1442 1442 1442 1442 1442 1442 1442 1442 1442 1442 1442 1442 1442 1442 1442 1441 1440 1440 1440 1439 1439 1438 1438 1437 1437 1436 1436 1435 1434 1434 1433 1432 1431 1430
1443 1443 1442 1442 1441 1441 1441 1441 1441 1441 1441 1441 1441 1441 1441 1441 1441 1441 1441 1441 1441 1441 1440 1440 1440 1439 1439 1438 1438 1438 1437 1437 1436 1435 1435 1434 1434 1433 1432 1432 1431 1430 1429 1428
1442 1442 1441 1440 1440 1440 1440 1440 1440 1440 1440 1440 1440 1440 1440 1440 1441 1440 1440 1440 1440 1440 1439 1439 1438 1438 1437 1437 1437 1436 1436 1435 1435 1434 1433 1433 1432 1431 1431 1430 1429 1428 1427 1425
1441 1441 1440 1440 1439 1439 1439 1439 1439 1439 1439 1439 1439 1439 1439 1440 1440 1440 1439 1440 1439 1439 1438 1437 1437 1436 1436 1436 1435 1435 1434 1434 1433 1432 1432 1431 1430 1429 1428 1428 1427 1426 1424 1423
1440 1440 1439 1439 1439 1438 1438 1439 1439 1439 1439 1439 1439 1439 1439 1439 1439 1439 1439 1439 1438 1438 1437 1436 1436 1436 1435 1435 1434 1434 1433 1433 1432 1431 1430 1430 1429 1428 1427 1426 1425 1423 1422 1421
1439 1439 1439 1438 1438 1438 1438 1438 1438 1438 1438 1438 1438 1438 1438 1438 1438 1438 1438 1438 1437 1437 1436 1436 1435 1435 1434 1433 1433 1433 1432 1431 1431 1430 1429 1428 1427 1426 1425 1424 1423 1422 1420 1419
1437 1437 1437 1437 1437 1437 1437 1437 1437 1437 1437 1437 1437 1437 1437 1438 1438 1437 1437 1437 1436 1436 1435 1435 1434 1434 1433 1433 1432 1432 1431 1430 1429 1429 1428 1426 1425 1424 1423 1422 1421 1420 1418 1417
1436 1436 1436 1436 1436 1436 1436 1436 1436 1436 1436 1436 1436 1437 1437 1437 1437 1436 1436 1436 1436 1435 1435 1434 1434 1433 1432 1432 1431 1431 1430 1429 1428 1427 1426 1425 1424 1423 1422 1420 1419 1418 1416 1415
1434 1434 1434 1434 1434 1435 1435 1435 1435 1435 1436 1436 1436 1436 1436 1436 1436 1436 1436 1435 1435 1434 1434 1433 1433 1432 1431 1431 1430 1429 1429 1428 1427 1426 1425 1424 1423 1421 1420 1419 1417 1416 1414 1412